Vorticity
9 8 7 5 5 5 5 6 6 6 5 5 6 6 8 10 8 4 11 7 1 1 5 5 4 6 5 5 6 5 1 -6 -24 8 17 1 11 8 10 4 6 0 2 7 10
9 9 9 10 8 7 6 5 6 6 6 7 5 4 6 8 9 8 5 8 4 3 8 2 4 4 3 5 7 7 5 -4 5 1 24 -2 11 -4 14 1 8 4 2 6 9
8 8 8 8 9 10 9 8 6 6 6 6 6 6 5 5 6 10 10 9 7 10 2 14 2 3 2 4 6 7 5 0 -2 30 17 -1 11 -0 7 5 4 4 3 5 10
6 8 8 8 8 9 9 10 10 8 7 8 8 7 5 6 5 5 9 10 12 2 7 2 17 7 6 4 4 6 8 3 11 -3 9 -0 43 -7 -1 9 7 4 8 8 7
4 3 7 8 8 7 7 8 9 9 9 8 9 10 9 7 7 3 7 9 12 12 2 5 4 11 -0 10 4 5 5 8 -12 -2 5 4 12 -14 15 15 8 4 6 9 9
10 12 5 6 7 7 7 6 7 7 8 8 8 10 11 9 8 7 4 2 9 12 12 4 6 4 8 1 7 3 3 3 4 -7 3 22 6 18 6 18 5 1 4 7 8
9 7 9 9 8 7 5 7 5 5 5 6 7 6 10 10 11 8 11 7 2 6 10 12 3 -1 3 10 7 4 4 3 5 15 -3 -3 -4 -5 -13 2 3 2 5 7 10
22 9 13 10 11 11 8 6 7 7 5 4 5 6 6 9 4 8 8 11 11 6 4 7 12 8 9 3 5 17 11 3 17 13 3 3 -3 -4 25 36 5 7 8 8 8
13 21 19 16 9 14 14 8 6 8 10 7 5 5 6 6 6 5 8 8 8 10 8 3 6 11 8 10 4 2 12 12 8 14 8 6 4 3 7 -14 22 8 11 10 12
10 12 15 20 17 12 15 15 7 5 5 7 9 9 6 8 6 4 4 5 6 7 9 10 7 4 8 12 14 7 1 6 4 -2 12 15 10 6 1 14 -45 11 -1 9 10
6 5 12 13 19 14 16 14 16 9 2 3 4 8 7 9 8 9 6 3 2 4 5 8 10 9 5 7 9 12 4 2 8 5 2 7 11 9 -2 2 6 35 -9 5 8
12 10 7 8 12 14 13 18 13 12 21 5 6 6 3 9 7 10 8 7 2 4 4 4 6 9 9 4 8 8 9 3 4 7 5 -2 1 -6 2 2 20 22 -27 3 7
33 19 12 8 11 14 15 12 18 10 15 16 13 7 6 8 8 8 8 10 9 7 3 4 1 4 6 10 3 6 10 9 11 -1 6 -2 -2 5 12 -4 11 9 52 8 7
26 32 27 22 22 10 13 13 12 14 12 17 12 14 14 13 10 9 9 8 9 11 11 7 4 6 2 6 11 3 4 11 12 4 -0 4 0 2 3 4 1 15 4 87 14
18 25 31 30 26 15 8 18 14 10 12 9 17 18 12 7 11 12 11 10 10 6 7 10 8 8 6 2 2 10 5 5 9 8 0 3 1 4 4 6 -4 6 -6 3 -2
8 12 3 20 31 21 12 14 21 23 17 19 13 15 15 12 12 11 9 12 11 9 13 6 14 11 11 7 4 1 6 5 5 4 3 5 -0 2 -5 -2 -1 13 4 57 -2
5 14 14 7 1 44 26 19 21 14 4 15 9 12 14 13 17 14 15 11 8 8 8 7 3 4 11 12 9 5 3 3 6 6 4 8 6 -4 11 3 3 -1 9 7 2
15 16 11 10 9 18 29 17 18 14 12 16 12 22 18 7 14 16 12 18 14 13 10 6 11 8 4 2 13 12 10 4 3 3 9 9 3 -7 1 4 5 -6 -0 -2 -7
12 17 7 7 8 12 36 7 3 5 -3 3 12 11 6 9 17 5 10 7 10 12 8 11 8 9 9 11 3 8 12 14 13 9 5 2 6 13 28 6 32 27 3 8 12
12 14 9 11 12 13 28 -16 21 7 10 -9 -10 18 9 8 2 3 5 10 11 10 13 16 17 11 15 13 12 2 4 11 13 8 4 15 5 29 9 24 12 -0 8 16 15
12 14 17 12 14 6 2 24 12 13 7 4 6 3 7 8 5 7 22 40 32 23 18 9 12 21 19 13 13 16 10 -1 1 2 10 5 11 9 3 6 5 3 -2 2 -4
15 14 10 11 9 9 3 11 11 10 9 9 7 12 10 8 2 6 4 4 1 8 7 12 17 13 10 6 13 10 17 12 6 5 3 3 7 1 -2 6 11 1 8 -5 7
9 9 6 7 5 7 9 9 6 9 13 15 14 18 13 11 11 -0 4 9 10 12 21 17 10 12 18 4 4 3 5 6 14 19 4 1 9 6 -3 -5 10 -1 24 3 16
13 10 8 8 5 5 4 6 10 17 14 13 10 12 16 17 29 24 12 11 7 2 1 10 12 19 22 16 12 5 4 6 7 3 12 13 5 8 8 -5 -5 -3 -5 15 -2
11 13 9 11 8 9 9 11 12 10 9 7 7 8 10 10 8 2 -6 -3 -3 9 2 16 14 15 13 14 20 25 10 -0 3 4 8 12 15 8 13 3 -9 14 29 11 3
19 16 11 9 25 8 11 15 8 11 10 7 6 7 13 15 11 6 -0 -1 -4 5 11 10 -0 5 9 11 13 11 16 27 5 5 6 7 11 14 6 14 -2 -3 1 14 22
18 23 21 17 7 5 7 11 14 14 12 10 8 8 12 11 10 12 11 16 24 9 17 1 6 4 13 -0 5 29 7 11 34 11 -2 1 7 15 11 7 4 4 -7 8 2
Height
5863 5862 5862 5861 5861 5862 5862 5862 5863 5864 5866 5867 5868 5869 5870 5872 5874 5875 5877 5880 5882 5883 5885 5886 5887 5889 5891 5893 5895 5895 5897 5898 5894 5895 5896 5897 5896 5895 5901 5905 5907 5906 5909 5911 5912
5858 5857 5856 5855 5856 5855 5856 5856 5857 5859 5861 5862 5864 5865 5867 5869 5870 5872 5875 5876 5879 5881 5883 5883 5885 5888 5889 5891 5893 5894 5896 5895 5897 5897 5897 5898 5897 5897 5902 5905 5908 5908 5909 5911 5913
5853 5852 5850 5849 5849 5849 5850 5850 5851 5853 5855 5857 5859 5861 5863 5865 5866 5869 5871 5873 5875 5878 5880 5881 5884 5887 5887 5890 5892 5892 5895 5896 5895 5895 5898 5898 5895 5894 5898 5902 5906 5908 5909 5911 5913
5846 5844 5844 5843 5843 5843 5843 5843 5845 5846 5849 5850 5853 5856 5858 5861 5863 5865 5867 5869 5872 5874 5876 5878 5881 5884 5886 5888 5889 5890 5893 5893 5893 5893 5899 5898 5893 5884 5895 5900 5903 5907 5908 5910 5913
5838 5836 5835 5836 5836 5836 5837 5837 5838 5840 5842 5844 5847 5850 5853 5857 5858 5860 5863 5865 5868 5870 5872 5874 5878 5880 5882 5883 5887 5887 5890 5890 5889 5890 5895 5896 5893 5894 5897 5897 5901 5904 5905 5909 5913
5827 5826 5825 5826 5827 5828 5829 5830 5831 5833 5835 5838 5841 5844 5848 5852 5852 5854 5857 5860 5863 5865 5869 5872 5872 5873 5876 5878 5883 5882 5886 5888 5889 5891 5894 5895 5895 5894 5895 5898 5902 5904 5903 5907 5909
5814 5813 5813 5814 5816 5818 5820 5822 5824 5826 5829 5832 5835 5838 5842 5845 5846 5849 5852 5855 5859 5861 5864 5865 5868 5873 5874 5877 5878 5879 5884 5887 5887 5891 5892 5895 5896 5895 5899 5901 5901 5903 5903 5905 5907
5806 5805 5804 5805 5806 5807 5810 5813 5816 5819 5822 5825 5829 5832 5834 5838 5842 5843 5847 5850 5853 5857 5859 5860 5864 5866 5872 5873 5876 5880 5884 5885 5884 5889 5890 5894 5895 5895 5894 5891 5898 5902 5901 5904 5904
5796 5794 5794 5795 5797 5798 5800 5803 5807 5811 5814 5818 5822 5826 5829 5833 5836 5839 5841 5844 5847 5850 5853 5855 5861 5864 5867 5870 5875 5878 5881 5883 5882 5883 5888 5890 5893 5893 5895 5896 5900 5901 5902 5903 5904
5788 5786 5785 5785 5786 5788 5790 5793 5798 5803 5807 5811 5814 5819 5823 5827 5829 5832 5836 5839 5842 5844 5848 5852 5857 5860 5863 5868 5873 5875 5876 5877 5877 5881 5881 5883 5889 5893 5894 5900 5901 5903 5902 5904 5902
5780 5778 5776 5776 5776 5778 5782 5785 5790 5795 5798 5803 5807 5810 5816 5819 5823 5826 5830 5834 5836 5840 5844 5846 5851 5857 5860 5863 5866 5869 5872 5876 5878 5878 5876 5877 5882 5887 5889 5895 5897 5900 5900 5901 5902
5771 5768 5767 5767 5767 5769 5771 5775 5778 5784 5788 5794 5797 5803 5808 5810 5814 5818 5824 5828 5831 5834 5837 5843 5848 5852 5854 5857 5861 5863 5867 5874 5875 5873 5876 5877 5880 5883 5885 5890 5894 5899 5899 5901 5902
5760 5758 5757 5757 5757 5760 5762 5766 5771 5775 5780 5784 5787 5793 5798 5803 5806 5812 5816 5820 5825 5828 5832 5837 5843 5844 5847 5850 5855 5858 5863 5868 5870 5867 5870 5872 5875 5878 5881 5887 5891 5896 5896 5901 5900
5752 5748 5747 5748 5751 5752 5754 5758 5762 5768 5772 5776 5779 5785 5790 5792 5799 5804 5808 5814 5818 5822 5825 5830 5834 5838 5843 5847 5850 5853 5858 5861 5864 5863 5867 5868 5873 5875 5878 5882 5887 5891 5891 5888 5899
5748 5745 5742 5741 5742 5745 5748 5751 5756 5761 5765 5771 5772 5776 5781 5785 5790 5797 5800 5805 5809 5813 5819 5824 5826 5832 5837 5842 5844 5850 5851 5857 5860 5859 5861 5863 5868 5873 5874 5881 5885 5890 5892 5893 5895
5748 5744 5742 5739 5738 5739 5741 5745 5750 5755 5758 5764 5766 5769 5774 5778 5782 5788 5792 5796 5801 5806 5812 5818 5821 5826 5832 5834 5836 5842 5845 5848 5853 5855 5859 5862 5864 5869 5876 5880 5883 5886 5889 5889 5895
5745 5743 5741 5739 5737 5735 5736 5740 5745 5748 5751 5756 5761 5763 5767 5771 5774 5779 5782 5787 5791 5797 5802 5809 5814 5818 5821 5827 5832 5836 5840 5843 5848 5852 5857 5862 5859 5866 5876 5879 5880 5881 5881 5886 5888
5743 5741 5740 5739 5738 5736 5735 5738 5739 5742 5744 5748 5755 5758 5761 5764 5768 5772 5774 5777 5785 5791 5796 5803 5808 5809 5816 5821 5825 5827 5831 5837 5843 5848 5849 5857 5857 5866 5872 5875 5879 5881 5879 5884 5888
5743 5741 5740 5739 5738 5736 5737 5740 5741 5741 5745 5748 5751 5753 5756 5758 5763 5766 5768 5772 5778 5783 5791 5796 5800 5804 5811 5810 5817 5821 5825 5829 5834 5838 5838 5848 5858 5866 5865 5865 5870 5874 5875 5878 5882
5744 5741 5740 5739 5739 5739 5740 5742 5741 5743 5744 5746 5749 5751 5752 5754 5756 5757 5763 5767 5772 5776 5783 5788 5792 5797 5801 5803 5809 5814 5817 5818 5823 5827 5829 5839 5850 5861 5855 5857 5859 5861 5867 5872 5877
5745 5742 5740 5740 5739 5740 5741 5741 5742 5741 5744 5745 5746 5748 5749 5753 5753 5756 5760 5764 5766 5771 5776 5781 5786 5792 5794 5797 5800 5803 5803 5807 5817 5819 5823 5834 5847 5850 5843 5845 5849 5852 5855 5860 5868
5746 5743 5741 5741 5743 5742 5742 5741 5741 5742 5742 5742 5744 5746 5747 5748 5750 5752 5754 5759 5761 5764 5769 5772 5777 5784 5789 5790 5791 5792 5797 5802 5807 5810 5814 5820 5836 5834 5830 5832 5836 5843 5850 5854 5857
5746 5743 5742 5741 5740 5740 5740 5740 5738 5738 5738 5739 5741 5742 5743 5745 5746 5746 5750 5752 5755 5759 5761 5765 5770 5775 5781 5781 5782 5784 5788 5792 5798 5802 5807 5809 5821 5825 5820 5822 5823 5830 5837 5847 5852
5744 5742 5741 5740 5739 5737 5737 5736 5736 5735 5735 5736 5737 5738 5739 5740 5742 5744 5744 5748 5751 5753 5755 5758 5760 5765 5770 5770 5772 5776 5780 5782 5786 5791 5795 5800 5806 5812 5810 5812 5817 5822 5830 5842 5849
5741 5740 5738 5737 5736 5735 5735 5734 5733 5733 5732 5733 5733 5733 5735 5737 5739 5742 5743 5742 5744 5746 5749 5750 5752 5754 5757 5760 5765 5767 5771 5774 5777 5780 5781 5789 5791 5800 5802 5804 5814 5817 5825 5831 5837
5739 5736 5734 5734 5732 5732 5731 5730 5730 5729 5730 5729 5730 5730 5731 5732 5733 5734 5735 5737 5736 5737 5739 5741 5743 5745 5746 5746 5748 5753 5758 5764 5769 5767 5763 5770 5779 5800 5797 5796 5806 5809 5817 5820 5824
5737 5734 5732 5731 5730 5729 5728 5727 5726 5726 5726 5725 5724 5725 5725 5725 5725 5726 5726 5726 5728 5730 5730 5732 5733 5734 5734 5732 5733 5738 5747 5742 5750 5748 5748 5759 5770 5785 5788 5787 5796 5801 5807 5809 5814